Aérodrome :
LOGIN :

S'inscrire | Disclaimer

   EN    FR    IT 

 










Légende :    VFR   VFR Marginal   IFR   IFR Intensif   IFR Très Intensif
Visi : 
Plafond : 
>= 8 km
>= 3000ft
5 à 8 km
1000 à 3000 ft
1500m à 5 km
500 à 1000 ft
800 à 1500m
200 à 500 ft
< 800m
< 200 ft
Symboles :   Orages  Brouillard  Fortes neiges  Fortes précipitations  Vent > 20 kt
SIGMETs :   Divers  Orages  Givrage  Turbulence  Onde Orograph.  Cendres Volcan.







- Altitude de l'aérodrome : 13 ft
- Code IATA : CAG


LIEE - Cagliari Elmas

DERNIER METAR :
  • 221820Z 12011KT CAVOK 22/14 Q1020

METARs EXPIRÉS :
  • 221750Z 14010KT CAVOK 22/15 Q1020
  • 221720Z 14009KT CAVOK 22/15 Q1020
  • 221650Z 15013KT CAVOK 23/15 Q1019
  • 221620Z 15013KT CAVOK 23/15 Q1019
  • 221550Z 15013KT CAVOK 24/15 Q1019

TAF TAF LIEE
Valide du 22 à 18h jusqu'au 23 à 18h UTC


221700Z 2218/2318 34007KT 9999 SCT030
BECMG 2307/2309 15012KT
TEMPO 2312/2318 TSRA
Pas de NOTAMs connus pour ce terrain.



MET'MAP, la Météo Aéronautique d'un coup d'oeil ! - Copyright ORBIFLY Décembre 2007 - Disclaimer

ORBIFLY MET'MAP TEAM :

Programmation & Développement : Alexandra Zaïnal
Conception & Développement : Baudouin d'Aumeries
Co-Programmation & Développement : Marc-Olivier Méhu
Soutien technique & logistique : Manuel Goepfert

Contact : metmap@orbifly.com




SOURCES & CREDITS :

   NOAA